Regional Weather Roundup
Issued by NWS

Home | Current Version | Previous Version | Graphics & Text | Print | Product List | Glossary Off
Versions: 1 2 3 4 5 6 7 8 9 10 11 12 13 14 15 16 17 18 19 20 21 22 23 24 25 26 27 28 29 30 31 32 33 34 35 36 37 38 39 40 41 42 43 44 45 46 47 48 49 50

000
ASUS43 KMKX 280011
RWRWI

WISCONSIN REGIONAL WEATHER ROUNDUP
NATIONAL WEATHER SERVICE MILWAUKEE/SULLIVAN WI
700 PM CDT WED JUL 27 2016

NOTE: "FAIR" INDICATES FEW OR NO CLOUDS BELOW 12,000 FEET WITH NO
SIGNIFICANT WEATHER AND/OR OBSTRUCTIONS TO VISIBILITY.

WIZ001-002-006>008-014>016-023>028-280100-
NORTHWEST WISCONSIN

CITY           SKY/WX    TMP DP  RH WIND       PRES   REMARKS
SUPERIOR ARPT  CLOUDY    62  60  93 NE8       30.02S
6HR MIN TEMP:  61; 6HR MAX TEMP:  63; 6HR PCP:  0.01;

ASHLAND        CLOUDY    64  62  93 N8        30.01F
6HR MIN TEMP:  63; 6HR MAX TEMP:  66; 6HR PCP:  0.09;

HAYWARD        CLOUDY    65  63  93 NE7       29.99S
6HR MIN TEMP:  64; 6HR MAX TEMP:  72; 6HR PCP:  0.52;

SIREN          CLOUDY    66  64  94 CALM      29.97S
CUMBERLAND     CLOUDY    64  63  94 E7        29.97R
RICE LAKE      LGT RAIN  66  64  93 NE3       29.98S
6HR MIN TEMP:  65; 6HR MAX TEMP:  75; 6HR PCP:  1.46;

CHETEK         LGT RAIN  66  65  96 E7        29.98R
6HR MIN TEMP:  66; 6HR MAX TEMP:  77; 6HR PCP:  0.90;

LADYSMITH      TSTM      66  64  94 NE8       30.00F
6HR MIN TEMP:  65; 6HR MAX TEMP:  76; 6HR PCP:  0.43;

EAU CLAIRE     RAIN      68  67  96 NE6       29.95R FOG
6HR MIN TEMP:  68; 6HR MAX TEMP:  83; 6HR PCP:  0.28;

MENOMONIE      LGT RAIN  68  67  98 NE6       29.93F
6HR MIN TEMP:  67; 6HR MAX TEMP:  84; 6HR PCP:  0.44;

NEW RICHMOND   CLOUDY    69  66  92 N5        29.95R
6HR MIN TEMP:  65; 6HR MAX TEMP:  80; 6HR PCP:  0.74;

OSCEOLA        CLOUDY    70  70 100 N8        29.98S
6HR MIN TEMP:  65; 6HR MAX TEMP:  79; 6HR PCP:  1.31;

$$

WIZ003>005-009-010-017-018-280100-
NORTH CENTRAL WISCONSIN

CITY           SKY/WX    TMP DP  RH WIND       PRES   REMARKS
MANITOWISH WTR LGT RAIN  65  65 100 NE5       30.02R
6HR MIN TEMP:  65; 6HR MAX TEMP:  71; 6HR PCP:  0.08;

ARBOR VITAE    RAIN      69  67  93 NE3       30.02R
6HR MIN TEMP:  69; 6HR MAX TEMP:  72; 6HR PCP:  0.01;

WOODRUFF       RAIN      69  67  93 NE3       30.02R
6HR MIN TEMP:  69; 6HR MAX TEMP:  72; 6HR PCP:  0.01;

RHINELANDER    RAIN      69  67  93 CALM      30.01S
6HR MIN TEMP:  69; 6HR MAX TEMP:  73; 6HR PCP:  0.02;

EAGLE RIVER    HVY RAIN  68  67  96 N3        30.02R
6HR MIN TEMP:  68; 6HR MAX TEMP:  71;

LAND O LAKES   LGT RAIN  67  65  93 CALM      30.04R
6HR MIN TEMP:  67; 6HR MAX TEMP:  71; 6HR PCP:  0.07;

PHILLIPS       RAIN      65  65 100 CALM      30.02R
6HR MIN TEMP:  65; 6HR MAX TEMP:  70; 6HR PCP:  0.24;

TOMAHAWK       HVY RAIN  65  62  91 CALM      30.04R
6HR MIN TEMP:  65; 6HR MAX TEMP:  73;

MEDFORD        TSTM      62  62 100 N7        30.01R
6HR MIN TEMP:  62; 6HR MAX TEMP:  77; 6HR PCP:  0.25;

MERRILL        TSTM      63  62  98 NE6       30.00F
6HR MIN TEMP:  63; 6HR MAX TEMP:  77; 6HR PCP:  0.09;

$$

WIZ029-030-035-036-043>047-280100-
CENTRAL WISCONSIN

CITY           SKY/WX    TMP DP  RH WIND       PRES   REMARKS
WAUSAU         TSTM      67  65  93 NE6       29.95F
6HR MIN TEMP:  67; 6HR MAX TEMP:  81; 6HR PCP:  0.24;

MOSINEE        NOT AVBL
MARSHFIELD     LGT RAIN  67  62  84 SE8       29.96S
6HR MIN TEMP:  67; 6HR MAX TEMP:  83; 6HR PCP:  0.28;

STEVENS POINT  HVY RAIN  71  67  87 W8        29.99R
6HR MIN TEMP:  71; 6HR MAX TEMP:  80; 6HR PCP:  0.02;

WAUPACA        PTSUNNY   77  68  73 CALM      29.96R
6HR MIN TEMP:  73; 6HR MAX TEMP:  83; 6HR PCP:  0.07;

WAUTOMA        CLOUDY    75  70  83 CALM      29.96S
6HR MIN TEMP:  69; 6HR MAX TEMP:  77;

WISC RAPIDS    CLOUDY    67  64  90 E5        29.97S
6HR MIN TEMP:  67; 6HR MAX TEMP:  83; 6HR PCP:  0.43;

CAMP DOUGLAS   PTSUNNY   77  70  78 SE5       29.94R
$$

WIZ011>013-019>022-031-037>040-048>050-280100-
NORTHEAST WISCONSIN

CITY           SKY/WX    TMP DP  RH WIND       PRES   REMARKS
ANTIGO         CLOUDY    70  67  92 CALM      30.00R
6HR MIN TEMP:  69; 6HR MAX TEMP:  73;

SHAWANO        CLOUDY    76  68  75 E6        29.97R
6HR MIN TEMP:  74; 6HR MAX TEMP:  81;

OCONTO         CLOUDY    74  74  99 CALM      29.94F
6HR MIN TEMP:  72; 6HR MAX TEMP:  76;

STURGEON BAY   MOSUNNY   74  68  81 NE5       29.96F
6HR MIN TEMP:  74; 6HR MAX TEMP:  79;

GREEN BAY      PTSUNNY   75  66  73 NE10      29.95S
6HR MIN TEMP:  73; 6HR MAX TEMP:  80; 6HR PCP:  0.01;

MANITOWOC      MOSUNNY   75  64  68 E6        29.95F
6HR MIN TEMP:  74; 6HR MAX TEMP:  82; 6HR PCP: TRACE;

APPLETON       PTSUNNY   75  61  60 VRB5      29.94F
CLINTONVILLE   CLOUDY    77  64  65 CALM      29.96R
OSHKOSH        MOSUNNY   77  67  71 CALM      29.93F
6HR MIN TEMP:  73; 6HR MAX TEMP:  78; 6HR PCP: TRACE;

$$

WIZ032>034-041-042-053>061-280100-
SOUTHWEST WISCONSIN

CITY           SKY/WX    TMP DP  RH WIND       PRES   REMARKS
LA CROSSE      CLOUDY    82  67  60 W8        29.92R HX  84
6HR MIN TEMP:  82; 6HR MAX TEMP:  86;

SPARTA         CLOUDY    79  69  72 CALM      29.94R HX  81
6HR MIN TEMP:  78; 6HR MAX TEMP:  83;

VIROQUA        CLOUDY    77  67  72 W5        29.96R
6HR MIN TEMP:  77; 6HR MAX TEMP:  83;

BOSCOBEL       CLOUDY    82  67  60 W6        29.93R HX  84
6HR MIN TEMP:  82; 6HR MAX TEMP:  89;

PRAIRIE DU CHI CLOUDY    81  63  53 SW3       29.93R HX  82
6HR MIN TEMP:  81; 6HR MAX TEMP:  85;

PLATTEVILLE    CLOUDY    80  69  70 W3        29.95R HX  83
6HR MIN TEMP:  80; 6HR MAX TEMP:  83;

$$

WIZ056-057-062-063-064-067-068-280100-
SOUTH CENTRAL WISCONSIN

CITY           SKY/WX    TMP DP  RH WIND       PRES   REMARKS
REEDSBURG      MOSUNNY   81  72  75 NE5       29.93R HX  85
6HR MIN TEMP:  78; 6HR MAX TEMP:  85;

BARABOO/DELLS  CLOUDY    77  68  72 CALM      29.95R
6HR MIN TEMP:  75; 6HR MAX TEMP:  84;

LONE ROCK      PTSUNNY   83  67  58 SW5       29.93R HX  85
6HR MIN TEMP:  82; 6HR MAX TEMP:  85;

MINERAL POINT  MOSUNNY   81  68  65 SW3       29.95R HX  83
MADISON        PTSUNNY   80  69  69 E7        29.92F HX  83
6HR MIN TEMP:  80; 6HR MAX TEMP:  88;

MIDDLETON      SUNNY     81  69  68 NE3       29.93S HX  84
6HR MIN TEMP:  80; 6HR MAX TEMP:  88;

WATERTOWN      SUNNY     77  68  72 E5        29.92F
6HR MIN TEMP:  77; 6HR MAX TEMP:  86;

MONROE         MOSUNNY   81  66  61 S5        29.93S HX  83
JANESVILLE     PTSUNNY   84  61  45 W3        29.91F HX  84
$$

WIZ051-052-058>065-066-070>072-280100-
SOUTHEAST WISCONSIN

CITY           SKY/WX    TMP DP  RH WIND       PRES   REMARKS
MILWAUKEE      PTSUNNY   78  66  66 NE10      29.94F HX  80
6HR MIN TEMP:  75; 6HR MAX TEMP:  89;

WAUKESHA       SUNNY     77  64  65 E7        29.95F
MILWAUKEE/TIMM SUNNY     79  61  53 E9        29.95F HX  80
RACINE         SUNNY     75  66  73 NE7       29.96F
6HR MIN TEMP:  74; 6HR MAX TEMP:  86;

BURLINGTON     SUNNY     79  67  66 NE9       29.93F HX  81
6HR MIN TEMP:  79; 6HR MAX TEMP:  88;

KENOSHA        SUNNY     79  68  69 NE8       29.94S HX  81
6HR MIN TEMP:  79; 6HR MAX TEMP:  88;

FOND DU LAC    CLOUDY    76  68  76 S6        29.93F
6HR MIN TEMP:  72; 6HR MAX TEMP:  80; 6HR PCP:  0.09;

SHEBOYGAN      CLOUDY    72  68  87 SE6       29.95R
6HR MIN TEMP:  67; 6HR MAX TEMP:  77; 6HR PCP:  1.06;

WEST BEND      CLOUDY    73  66  78 SE5       29.95S
JUNEAU         CLOUDY    77  66  68 SE6       29.95S
6HR MIN TEMP:  69; 6HR MAX TEMP:  84; 6HR PCP:  0.31;

$$

LSZ147-162-280100-
LAKE SUPERIOR

STATION/POSITION TIME  TEMP    WIND        PRES    WAVE
                       AIR SEA DIR/SP/G            HT/PER
                 (UTC) (F)     (DEG/KT/KT) (MB)    (FT/S)
W MID LAKE BUOY  2350   62 60   90/  8/  8 1015.7R   1/ 4
DEVILS ISLAND    0000   62      50/  6/  7 1016.6F
PORT WING        2210   65      30/ 11/ 12 1016.6
SAXON HARBOR     2300   67      60/ 12/ 13 1015.6F
$$

LMZ867-665-643>646-280100-
LAKE MICHIGAN

STATION/POSITION TIME  TEMP    WIND        PRES    WAVE
                       AIR SEA DIR/SP/G            HT/PER
                 (UTC) (F)     (DEG/KT/KT) C1F1C2F2C3F3C4F4C5F5C6F6C7F7C8M1C9M2Ca!



USA.gov is the U.S. government's official web portal to all federal, state and local government web resources and services.